SCP
0 0 0 0 0 0 0 0 0 0 0 0 0 0 0 0 0 0 0 0 0 0 1 1 1 1 1 1 1 1 1 1 1 1 1 1 1 1 1 1 0 0 0 0 0 0 0 0 0
0 0 0 0 0 0 0 0 0 0 0 0 0 0 0 0 0 0 0 0 0 1 1 1 1 1 1 1 1 1 1 1 1 1 1 1 1 1 1 1 0 0 0 0 0 0 0 0 0
0 0 0 0 0 0 0 0 0 0 0 0 0 0 0 0 0 0 0 0 0 1 1 1 1 1 1 1 1 1 1 1 1 1 1 1 1 1 1 0 0 0 0 0 0 0 0 0 0
0 0 0 0 0 0 0 0 0 0 0 0 0 0 0 0 0 0 0 0 0 1 1 1 1 1 1 1 1 1 1 1 1 1 1 1 1 1 1 0 0 0 0 0 0 0 0 0 0
0 0 0 0 0 0 0 0 0 0 0 0 0 0 0 0 0 0 0 0 1 1 1 1 1 1 1 1 1 1 1 1 1 1 1 1 1 1 1 0 0 0 0 0 0 0 0 0 0
0 0 0 0 0 0 0 0 0 0 0 0 0 0 0 0 0 1 1 1 1 1 1 1 1 1 1 1 1 1 1 1 1 1 1 1 1 1 1 0 0 0 0 0 0 0 0 0 0
0 0 0 0 0 0 0 0 0 0 0 0 0 0 0 0 1 1 1 1 1 1 1 1 1 1 1 1 1 1 1 1 1 1 1 1 1 0 0 0 0 0 0 0 0 0 0 0 0
0 0 0 0 0 0 0 0 0 0 0 0 0 0 0 0 1 1 1 1 1 1 1 1 1 1 1 1 1 1 1 1 1 1 1 1 0 0 0 0 0 0 0 0 0 0 0 0 0
0 0 0 0 0 0 0 0 0 0 0 0 0 0 0 1 1 1 1 1 1 1 1 1 1 1 1 1 1 1 1 1 1 1 0 0 0 0 0 0 0 0 0 0 0 0 0 0 0
0 0 0 0 0 0 0 0 0 0 0 0 0 0 1 1 1 1 1 1 1 1 1 1 1 1 1 1 1 1 1 1 1 0 0 0 0 0 0 0 0 0 0 0 0 0 0 0 0
0 0 0 0 0 0 0 0 0 0 0 0 0 1 1 1 1 1 1 1 1 1 1 1 1 1 1 1 1 1 1 1 1 0 0 0 0 0 0 0 0 0 0 0 0 0 0 0 0
0 0 0 0 0 0 0 0 0 0 0 0 0 1 1 1 1 1 1 1 1 1 1 1 1 1 1 1 1 1 1 1 1 0 0 0 0 0 0 0 0 0 0 0 0 0 0 0 0
0 0 0 0 0 0 0 0 0 0 0 0 0 1 1 1 1 1 1 1 1 1 1 1 1 1 1 1 1 1 1 1 0 0 0 0 0 0 0 0 0 0 0 0 0 0 0 0 0
0 0 0 0 0 0 0 0 0 0 0 0 1 1 1 1 1 1 1 1 1 1 1 1 1 1 1 1 1 1 1 1 0 0 0 0 0 0 0 0 0 0 0 0 0 0 0 0 0
0 0 0 0 0 0 0 0 0 0 0 1 1 1 1 1 1 1 1 1 1 1 1 1 1 1 1 1 1 1 0 0 0 0 0 0 0 0 0 0 0 0 0 0 0 0 0 0 0
0 0 0 0 0 0 0 0 0 0 0 0 0 0 0 0 0 0 0 0 0 1 1 1 1 1 1 1 0 0 0 0 0 0 0 0 0 0 0 0 0 0 0 0 0 0 0 0 0
0 0 0 0 0 0 0 0 0 0 0 0 0 0 0 0 0 0 0 0 0 0 0 1 1 0 0 0 0 0 0 0 0 0 0 0 0 0 0 0 0 0 0 0 0 0 0 0 0
0 0 0 0 0 0 0 0 0 0 0 0 0 0 0 0 0 0 0 0 0 0 0 0 0 0 0 0 0 0 0 0 0 0 0 0 0 0 0 0 0 0 0 0 0 0 0 0 0
0 0 0 0 0 0 0 0 0 0 0 0 0 0 0 0 0 0 0 0 0 0 0 0 0 1 0 0 0 0 0 0 0 0 0 0 0 0 0 0 0 0 0 0 0 0 0 0 0
0 0 0 0 0 0 0 0 0 0 0 0 0 0 0 0 0 0 0 0 0 0 0 0 1 1 1 0 0 0 0 0 0 0 0 0 0 0 0 0 0 0 0 0 0 0 0 0 0
0 0 0 0 0 0 0 0 0 0 0 0 0 0 0 0 0 0 0 0 0 0 0 0 0 1 1 0 0 0 0 0 0 0 0 0 0 0 0 0 0 0 0 0 0 0 0 0 0
0 0 0 0 0 0 0 0 0 0 0 0 0 0 0 0 0 0 0 0 0 0 0 0 0 0 0 0 0 0 0 0 0 0 0 0 0 0 0 0 0 0 0 0 0 0 0 0 0
0 0 0 0 0 0 0 0 0 0 0 0 0 0 0 0 0 0 0 0 0 0 0 0 0 0 0 0 0 0 0 0 0 0 0 0 0 0 0 0 0 0 0 0 0 0 0 0 0
0 0 0 0 0 0 0 0 0 0 0 0 0 0 0 0 0 0 0 0 0 0 0 0 0 0 0 0 0 0 0 0 0 0 0 0 0 0 0 0 0 0 0 0 0 0 0 0 0
0 0 0 0 0 0 0 0 0 0 0 0 0 0 0 0 0 0 0 0 0 0 0 0 0 0 0 0 0 0 0 0 0 0 0 0 0 0 0 0 0 0 0 0 0 0 0 0 0
0 0 0 0 0 0 0 0 0 0 0 0 0 0 0 0 0 0 0 0 0 0 0 0 0 0 0 0 0 0 0 0 0 0 0 0 0 0 0 0 0 0 0 0 0 0 0 0 0
0 0 0 0 0 0 0 0 0 0 0 0 0 0 0 0 0 0 0 0 0 0 0 0 0 0 0 0 0 0 0 0 0 0 0 0 0 0 0 0 0 0 0 0 0 0 0 0 0
0 0 0 0 0 0 0 0 0 0 0 0 0 0 0 0 0 0 0 0 0 0 0 0 0 0 0 0 0 0 0 0 0 0 0 0 0 0 0 0 0 0 0 0 0 0 0 0 0
0 0 0 0 0 0 0 0 0 0 0 0 0 0 0 0 0 0 0 0 0 0 0 0 0 0 0 0 0 0 0 0 0 0 0 0 0 0 0 0 0 0 0 0 0 0 0 0 0
0 0 0 0 0 0 0 0 0 0 0 0 0 0 0 0 0 0 0 0 0 0 0 0 0 0 0 0 0 0 0 0 0 0 0 0 0 0 0 0 0 0 0 0 0 0 0 0 0
Wind_Speed
2 3 2 2 5 4 2 4 3 2 1 1 2 3 4 3 3 3 0 7 9 10 9 12 14 14 14 14 14 14 14 14 14 14 14 13 13 13 12 11 10 10 9 8 8 7 6 6 6
2 3 3 4 5 1 5 4 3 3 3 1 1 2 1 1 1 1 2 6 10 10 9 10 14 13 13 13 13 13 13 13 13 13 13 13 12 12 11 11 10 9 8 8 7 6 6 5 5
2 2 4 5 3 4 4 3 3 2 2 1 1 1 1 1 1 3 4 9 9 9 8 10 15 14 13 13 12 12 13 13 12 12 12 12 11 11 10 10 9 8 7 7 6 6 5 4 4
3 4 5 4 2 5 5 5 3 2 3 1 2 1 0 0 2 3 8 11 10 8 8 9 14 14 14 13 12 12 12 12 12 12 11 11 11 10 9 8 8 7 6 6 6 5 4 4 3
4 4 4 2 4 5 5 5 4 3 2 0 2 2 1 2 4 8 9 10 10 8 7 8 13 13 13 13 13 12 11 11 11 11 10 10 9 8 8 7 7 6 5 5 5 4 3 3 3
5 5 4 2 5 5 4 3 1 2 2 1 2 2 2 1 5 7 8 8 8 8 7 7 13 14 13 13 12 11 10 10 10 9 9 9 8 7 7 6 5 5 5 4 4 4 3 2 2
4 4 2 3 4 4 3 1 1 1 2 3 3 3 1 1 4 6 6 6 6 6 6 5 6 9 12 12 10 10 9 9 9 9 8 8 8 7 6 5 4 4 4 4 3 3 3 2 2
5 4 0 2 3 4 3 1 1 2 4 2 3 4 5 5 7 8 7 6 6 5 5 5 5 4 5 6 10 10 9 8 8 8 8 7 7 6 5 4 4 4 4 4 3 3 3 3 2
4 4 2 4 4 5 3 2 3 1 1 1 2 3 3 10 11 9 7 5 5 5 4 4 4 4 4 5 7 8 9 8 7 6 7 6 2 2 2 3 4 4 4 4 4 3 3 3 3
4 2 7 6 5 5 4 3 3 1 2 2 1 1 8 11 11 10 9 9 8 8 6 4 5 4 4 5 4 3 4 4 3 2 3 2 2 2 2 2 4 4 4 4 3 3 3 2 1
4 6 6 6 7 5 4 4 2 2 5 6 6 6 10 11 10 10 9 8 8 7 6 5 5 5 4 3 3 2 2 2 2 3 3 2 2 1 1 1 1 2 2 1 1 1 1 1 1
3 7 6 6 4 3 4 3 1 5 8 5 5 8 10 11 10 10 9 7 6 6 6 5 5 4 4 3 3 3 2 2 2 2 3 2 2 1 1 1 1 1 1 1 1 1 1 1 2
4 6 5 6 6 4 3 3 3 5 5 1 5 8 9 9 8 6 5 4 4 5 6 5 5 5 4 3 3 3 3 3 3 3 3 3 2 2 2 1 1 1 1 1 1 1 1 2 2
3 4 6 5 4 2 1 2 0 5 1 4 6 6 7 7 7 5 4 4 4 5 5 5 5 5 5 4 3 2 3 2 2 3 3 4 3 3 2 2 1 1 1 1 1 1 2 2 1
2 4 7 3 2 1 2 4 3 3 3 4 4 4 5 4 5 5 5 5 5 4 4 5 5 5 5 5 4 3 3 3 3 3 3 4 4 3 3 2 2 2 1 1 1 1 1 1 1
3 4 4 6 3 2 3 3 6 2 3 2 2 3 3 3 3 3 3 3 4 4 5 5 5 5 5 4 4 3 3 3 2 2 2 3 3 3 3 2 2 1 1 1 1 1 1 1 1
4 3 4 7 3 2 2 4 6 3 3 1 1 2 2 1 1 2 3 3 3 5 5 5 4 5 5 4 2 2 2 2 2 2 2 2 3 3 3 2 2 1 1 1 2 1 1 1 2
3 3 4 5 4 3 2 3 5 5 4 2 2 1 1 1 2 1 1 2 3 3 4 4 4 4 4 4 3 2 1 1 1 1 2 2 2 3 3 2 2 2 1 1 1 1 1 1 1
2 3 6 7 4 1 1 2 5 5 6 5 4 3 2 2 2 0 1 2 2 2 3 4 4 4 4 3 3 3 2 1 1 1 2 2 2 2 2 2 2 2 2 2 2 1 1 1 0
1 3 4 5 3 1 1 2 3 4 4 3 3 3 4 3 3 1 1 1 2 2 3 3 4 4 4 4 3 2 2 1 1 1 1 2 3 3 2 2 2 2 2 2 2 2 1 1 1
2 2 4 4 3 3 2 4 4 4 4 5 4 3 3 3 2 2 2 2 2 2 4 5 5 4 4 4 3 2 2 1 0 0 1 2 2 2 2 2 2 2 3 2 3 3 3 2 2
4 4 3 1 1 2 2 1 4 5 6 8 8 6 4 4 3 2 1 2 2 3 3 4 5 4 4 4 4 4 3 3 3 2 1 1 1 1 2 2 2 2 2 2 3 3 3 3 2
3 3 2 1 2 2 3 1 5 4 6 8 8 7 6 5 4 2 1 1 1 2 2 3 3 3 3 3 4 4 3 2 1 1 1 1 1 1 1 2 2 2 2 2 2 2 2 3 3
2 4 4 4 4 2 2 1 4 3 4 7 7 7 7 6 5 5 3 2 1 1 2 2 3 2 3 3 3 5 5 4 2 1 1 1 1 1 1 1 2 2 2 2 2 2 3 3 3
7 6 6 7 5 3 2 1 4 4 4 5 7 7 6 5 5 4 4 3 2 0 1 2 2 2 2 2 2 3 4 4 4 3 3 2 1 1 2 1 1 1 2 2 2 2 3 3 4
3 5 4 2 3 5 3 1 4 3 5 6 5 4 5 5 5 4 4 3 2 1 1 2 2 2 2 2 2 2 3 3 3 3 3 3 2 2 2 2 2 2 2 2 2 3 3 3 4
2 2 2 4 0 2 4 3 4 5 8 8 8 6 6 6 6 5 4 3 2 1 2 2 2 2 2 2 2 1 2 2 3 2 2 2 2 2 3 2 2 2 2 3 2 3 3 3 3
3 3 4 4 1 3 4 3 4 7 8 9 9 7 7 7 6 5 3 3 2 1 1 1 2 2 2 2 2 2 2 2 2 2 2 2 3 2 2 2 3 3 3 3 2 3 3 2 3
4 4 4 2 2 2 3 5 2 4 6 7 8 6 6 7 6 5 4 3 2 1 0 1 1 1 1 2 2 1 1 2 2 2 2 2 2 2 3 3 3 3 2 2 2 2 2 3 3
1 1 3 2 2 1 2 7 4 5 6 6 7 6 6 5 4 4 4 3 2 1 0 0 1 1 1 2 2 1 1 1 2 2 2 2 3 3 3 2 2 2 2 2 2 3 3 2 3
Wind_Direction
168 121 104 73 57 47 282 264 248 276 268 247 113 129 146 164 183 228 342 138 135 140 148 156 158 158 155 151 145 142 140 137 137 138 140 142 143 143 144 145 147 148 147 145 146 146 147 146 145
136 124 72 63 83 47 277 260 247 241 220 184 70 96 109 218 189 124 123 143 137 141 145 152 157 158 156 152 148 146 143 141 141 141 142 143 143 145 147 148 149 150 150 151 150 150 148 146 146
138 91 85 75 111 191 247 250 231 268 262 225 146 86 148 218 162 168 161 139 135 141 147 157 158 159 157 155 152 150 147 145 144 144 145 145 147 147 148 150 152 154 156 157 158 155 153 154 156
104 56 58 74 238 233 234 254 248 269 305 310 143 117 155 21 157 154 138 140 141 146 150 159 157 158 158 157 155 153 151 150 149 149 149 149 149 148 147 150 155 158 160 162 164 160 160 167 165
65 78 60 9 267 260 251 263 254 256 273 271 138 166 274 3 99 122 137 144 147 148 151 158 157 158 159 159 158 157 155 154 154 154 152 150 150 150 151 155 159 163 167 169 171 167 174 181 178
60 68 78 285 281 277 269 251 228 255 272 254 154 158 274 92 118 134 137 139 143 146 147 153 162 162 163 164 162 161 159 159 157 155 155 153 153 155 158 162 167 171 177 184 186 181 180 180 196
103 100 161 240 282 298 281 269 201 261 280 244 170 150 246 157 138 130 123 122 126 135 142 149 162 164 164 163 163 163 162 161 159 159 161 162 163 165 167 170 176 180 188 193 190 188 184 198 217
126 105 136 252 254 270 277 330 319 255 254 229 153 170 213 187 136 118 110 113 123 132 145 150 147 148 153 159 167 169 168 165 165 169 172 173 176 175 177 173 182 191 200 204 201 200 204 218 233
93 76 241 233 220 254 267 304 303 281 202 229 205 200 182 138 130 125 124 128 143 156 159 157 153 148 152 158 171 170 171 171 170 174 177 173 164 164 182 190 194 203 209 218 215 210 216 226 240
99 149 235 226 211 239 270 255 261 305 291 277 292 81 125 139 146 152 161 168 172 176 175 167 164 161 160 167 160 159 164 163 164 157 158 150 139 161 184 205 216 214 212 225 227 227 236 249 250
167 208 245 257 241 233 252 260 235 175 251 234 217 177 149 153 160 169 176 180 180 174 174 174 173 170 167 162 150 150 149 149 156 157 151 143 140 158 180 195 249 249 237 235 248 250 250 257 249
206 246 241 261 258 234 226 219 227 208 233 242 205 163 155 164 173 180 182 183 174 164 172 175 175 171 167 159 155 154 157 158 165 164 161 161 167 185 196 197 226 240 241 240 245 243 254 256 254
225 263 257 250 267 255 243 237 221 249 259 154 131 140 159 168 174 177 173 167 163 168 171 179 178 175 170 162 166 164 171 175 175 168 176 172 176 195 204 214 209 226 232 230 235 235 252 260 268
250 275 293 294 290 284 175 287 337 271 314 112 134 152 159 166 165 163 168 169 174 181 179 178 179 177 167 169 173 169 172 168 170 176 183 180 183 191 198 208 213 223 224 226 222 237 243 249 254
306 326 326 323 353 314 69 354 291 278 95 117 139 153 159 167 157 176 187 182 181 182 180 181 186 179 173 175 175 167 166 162 176 183 186 189 188 191 192 200 218 230 221 214 219 251 249 257 265
13 17 336 312 351 360 76 294 296 13 100 127 146 158 160 175 172 182 187 177 173 173 174 186 189 178 174 171 166 156 157 163 177 171 172 189 186 182 184 193 215 228 209 205 204 208 222 258 269
21 353 302 308 339 30 78 274 310 4 78 83 180 175 159 165 181 191 181 173 175 184 178 180 179 175 170 159 145 141 137 164 179 170 175 182 188 189 183 193 209 201 199 212 219 195 198 234 272
288 302 299 296 305 21 4 301 337 7 52 35 9 28 111 224 245 238 173 158 166 179 173 173 168 163 154 142 127 116 115 169 182 188 187 189 193 195 185 193 202 183 193 230 218 211 205 216 252
233 268 286 279 284 35 16 356 353 15 36 22 6 356 334 284 277 293 129 154 154 165 168 172 165 165 151 151 161 165 191 205 213 218 211 203 201 197 193 204 201 187 198 220 222 206 213 235 206
220 286 292 302 347 85 69 15 12 33 32 30 7 346 328 321 345 344 212 185 176 174 174 174 173 170 169 171 165 160 167 188 210 241 237 221 217 210 201 205 196 193 202 221 220 205 198 220 173
289 239 268 280 341 40 49 355 357 359 15 19 15 8 350 311 283 272 228 216 181 174 171 177 183 179 172 159 134 118 98 69 66 264 263 250 225 214 203 202 199 201 195 211 222 211 201 215 214
296 281 269 289 34 326 45 303 316 335 352 1 354 349 336 326 303 294 272 230 205 187 178 178 180 175 172 162 156 159 175 199 215 211 216 255 234 215 209 203 203 206 203 216 227 210 205 198 213
271 331 4 24 120 32 16 98 298 346 347 335 333 337 331 335 342 331 317 252 199 157 165 169 161 163 172 171 170 169 189 205 203 185 187 251 291 230 218 213 205 208 208 221 234 220 205 202 206
336 30 38 43 62 25 321 118 298 320 311 319 327 334 338 346 3 2 358 359 78 114 128 135 143 161 176 176 179 180 188 187 182 189 204 224 246 263 251 229 209 208 213 224 234 233 221 215 217
34 54 22 3 8 276 310 95 258 296 311 310 312 320 336 347 356 358 358 352 344 128 152 155 162 180 179 180 188 195 195 192 197 201 203 202 219 237 255 243 224 218 225 234 237 236 241 227 222
12 103 133 231 256 291 333 251 258 321 331 332 329 329 346 350 347 343 342 325 315 269 181 169 177 196 182 182 196 205 200 198 202 201 201 204 216 230 239 228 227 239 241 241 236 243 246 231 230
41 45 153 143 278 297 296 303 311 352 352 349 347 347 342 339 337 337 335 325 307 263 217 195 191 205 192 193 202 212 202 196 199 196 199 212 223 229 232 234 239 246 243 238 228 243 251 237 234
81 122 66 79 63 296 302 308 306 327 330 334 336 332 329 334 337 338 333 325 307 278 230 191 187 206 203 189 201 225 218 203 196 193 208 222 235 236 239 246 251 256 254 246 232 240 246 240 246
14 38 69 89 147 177 294 287 287 305 314 320 320 321 326 331 337 337 332 321 313 328 55 181 186 191 195 188 190 204 219 200 189 194 216 232 251 242 237 241 249 256 253 246 235 248 245 240 256
93 90 117 99 291 186 225 275 305 321 317 322 328 332 331 328 335 341 334 325 322 331 328 235 187 190 216 203 176 180 221 205 200 220 237 240 256 259 251 251 255 253 251 248 246 258 255 243 257